Regional Weather Roundup
Issued by NWS

Home | Current Version | Previous Version | Text Only | Print | Product List | Glossary On
Versions: 1 2 3 4 5 6 7 8 9 10 11 12 13 14 15 16 17 18 19 20 21 22 23 24 25 26 27 28 29 30 31 32 33 34 35 36 37 38 39 40 41 42 43 44 45 46 47 48 49 50
000
ASUS43 KDTX 221110
RWRMI
MICHIGAN HOURLY REGIONAL WEATHER ROUNDUP
NATIONAL WEATHER SERVICE DETROIT/PONTIAC MI
600 AM EST MON DEC 22 2014

NOTE: "FAIR" INDICATES FEW OR NO CLOUDS BELOW 12,000 FEET WITH NO
SIGNIFICANT WEATHER AND/OR OBSTRUCTION TO VISIBILITY.

MIZ047>049-052>055-059>063-066>070-074>076-081>083-221200-
SOUTHEAST LOWER MICHIGAN

CITY           SKY/WX    TMP DP  RH WIND       PRES   REMARKS
ADRIAN         CLEAR     24  21  88 E6        30.09F FOG     WCI  17
ALMA           MOCLDY    25  24  98 E3        30.09F FOG
ANN ARBOR      PTCLDY    23  21  92 NE6       30.09F FOG     WCI  16
BAD AXE        MOCLDY    27  24  88 SE6       30.13S WCI  21
CARO           MOCLDY    27  23  85 SE6       30.12S WCI  20
DETROIT CITY   MOCLDY    27  22  81 E3        30.12F HAZE
DETROIT        CLOUDY    27  23  85 NE3       30.12F FOG
FLINT          CLOUDY    27  22  81 SE5       30.11S WCI  22
GROSSE ILE     MOCLDY    28  25  86 CALM      30.10F
HILLSDALE      CLEAR     25  23  93 SE7       30.04F FOG     WCI  17
HOWELL         MOCLDY    25  24  95 E6        30.08F FOG     WCI  18

CITY           SKY/WX    TMP DP  RH WIND       PRES   REMARKS
JACKSON        PTCLDY    25  21  85 SE7       30.06F FOG     WCI  17
LAMBERTVILLE   PTCLDY    25  21  86 E3        30.10F FOG
LANSING        MOCLDY    27  23  85 SE8       30.08F FOG     WCI  19
LAPEER         FAIR      25  23  91 CALM      30.12S
MASON          MOCLDY    26  24  89 SE5       30.07F FOG     WCI  21
MONROE         MOCLDY    28  25  86 E5        30.08F WCI  23
MT. CLEMENS    MOCLDY    28  27  93 SE6       30.11S WCI  22
PONTIAC        CLOUDY    26  22  84 SE5       30.09F WCI  20
PORT HOPE        N/A     30  24  78 S5        30.12S WCI  25
PORT HURON     CLOUDY    30  25  80 SE5       30.14S WCI  25
TRI CITIES     MOCLDY    28  23  81 SE7       30.12S WCI  21
TROY           MOCLDY    29  24  81 E3        30.13S
SAGINAW HB     MOCLDY    28  25  86 SE3       30.11S
$$
MIZ043>046-050>051-056>058-064>065-071>073-077>080-221200-
SOUTHWEST LOWER MICHIGAN

CITY           SKY/WX    TMP DP  RH WIND       PRES   REMARKS
BATTLE CREEK   MOCLDY    28  22  78 E8        30.04F WCI  20
BENTON HARBOR  MOCLDY    28  24  85 SE10      30.00F FOG     WCI  19
BIG RAPIDS     CLOUDY    29  27  92 SE7       30.03F FOG     WCI  22
COLDWATER      FAIR      26  23  87 SE6       30.03F FOG     WCI  20
FREMONT        FAIR      30  25  81 SE7       30.03S WCI  23
HOLLAND        MOCLDY    30  23  75 SE12      30.02F WCI  20
GRAND RAPIDS   MOCLDY    26  22  84 SE6       30.05S FOG     WCI  19
IONIA          FAIR      27  25  90 SE7       30.05F FOG     WCI  20
KALAMAZOO      PTCLDY    28  22  78 SE6       30.04R WCI  22
LUDINGTON      CLOUDY    32  26  78 SE12      30.01F WCI  23
MARSHALL       PTCLDY    24  21  89 E5        30.05S FOG     WCI  18
MOUNT PLEASANT CLOUDY    27  25  91 SE3       30.08F FOG
MUSKEGON       CLOUDY    30  24  78 SE9       30.02F WCI  22
SOUTH HAVEN    PTCLDY    30  25  81 SE7       30.01S HAZE    WCI  23
$$
MIZ016>042-221200-
NORTHERN LOWER MICHIGAN

CITY           SKY/WX    TMP DP  RH WIND       PRES   REMARKS
ALPENA         MOCLDY    29  25  85 SE9       30.12S WCI  20
BEAVER ISLAND  CLOUDY    33  29  86 SE8       30.02F WCI  26
BELLAIRE       CLOUDY    31  25  79 S7        30.05S WCI  24
CADILLAC       CLOUDY    27  24  87 SE8       30.01S FOG     WCI  19
CHARLEVOIX     CLOUDY    31  26  83 SE6       30.06F WCI  25
FRANKFORT      CLOUDY    32  27  82 S7        30.01S WCI  25
GAYLORD        CLOUDY    26  23  88 S10       30.03F FOG     WCI  16
GRAYLING       CLOUDY    28  26  91 SE6       30.05F FOG     WCI  22
HARBOR SPRINGS CLOUDY    30  25  81 E3        30.05F
HOUGHTON LAKE  CLOUDY    26  22  84 SE6       30.06F WCI  19
MANISTEE       CLOUDY    30  23  74 SE9       30.01F WCI  22
OSCODA         CLOUDY    29  26  89 CALM      30.13S
PELLSTON       CLOUDY    30  25  81 SE10      30.06S WCI  21
ROGERS CITY    CLOUDY    29  27  92 S9        30.11F WCI  21
TRAVERSE CITY  CLOUDY    32  25  75 S7        30.02S WCI  26
$$
MIZ007>008-015-221200-
EASTERN UPPER MICHIGAN

CITY           SKY/WX    TMP DP  RH WIND       PRES   REMARKS
KINROSS        CLOUDY    30  30 100 SE13      30.05S WCI  20
MACKINAC ISLAN CLOUDY    31  26  82 S12G22    30.05S WCI  22
S. S. MARIE    LGT SNOW  31  28  89 SE8       30.09R FOG     WCI  23
MUNISING         N/A     36  31  82 S10       29.94S WCI  28
$$
MIZ004>006-011>014-085-221200-
CENTRAL UPPER MICHIGAN

CITY           SKY/WX    TMP DP  RH WIND       PRES   REMARKS
MANISTIQUE     CLOUDY    34  32  93 S12G17    29.98F FOG     WCI  25
ESCANABA       CLOUDY    36  32  87 S10       29.94F WCI  28
MENOMINEE      CLOUDY    36  30  80 S12       29.93S WCI  27
SAWYER-GWINN   CLOUDY    33  32  96 S15       29.89F FOG     WCI  23
$$
MIZ001>003-009>011-084-221200-
WESTERN UPPER MICHIGAN

CITY           SKY/WX    TMP DP  RH WIND       PRES   REMARKS
IRON MOUNTAIN  CLOUDY    33  30  88 SE9       29.88S FOG     WCI  25
HOUGHTON       LGT SNOW  32  31  96 S9        29.82F VSB 3/4 WCI  24
COPPER HARBOR    N/A     35  32  88 SW10      29.85S WCI  27
IRONWOOD       CLOUDY    36  34  93 S7        29.75S WCI  30
$$

ABBREVIATIONS USED IN REMARKS
   TC - TEMPERATURE IN CELSIUS
  WCI - WIND CHILL INDEX
   HX - HEAT INDEX
  VSB - VISIBILITY




USA.gov is the U.S. government's official web portal to all federal, state and local government web resources and services.